QPF
0.00 0.00 0.00 0.00 0.00 0.00 0.00 0.00 0.00 -0.00 -0.00 0.00 0.00 0.00 0.00 0.00 0.00 0.00 0.00 0.00 0.00 0.00 0.00 0.00 0.00 0.00 0.00 0.01 0.00 0.00 0.00 0.00 0.01 0.02 0.01 0.01 0.03 0.05 0.03 0.03 0.02 0.07
0.00 0.00 0.00 0.00 0.00 0.00 0.00 0.00 0.00 0.00 0.00 0.00 0.00 0.00 0.00 -0.00 0.00 0.00 0.00 0.00 0.00 0.00 0.00 0.01 0.00 0.00 0.01 0.01 0.01 0.01 0.01 0.02 0.01 0.01 0.01 0.01 0.01 0.01 0.01 0.02 0.03 0.02
0.00 0.00 0.00 0.00 0.00 0.00 0.00 0.00 -0.00 0.00 0.00 0.00 0.00 0.00 0.00 -0.00 0.00 0.00 0.00 0.01 0.00 0.01 0.00 0.01 0.00 0.00 0.00 0.01 0.01 0.01 0.01 0.01 0.00 0.01 0.00 0.00 0.00 0.01 0.02 0.04 0.02 0.02
0.00 0.00 0.00 0.00 0.00 0.00 0.00 0.00 0.00 0.00 0.00 0.00 0.00 0.00 0.00 0.00 0.00 0.00 0.00 0.00 0.00 0.01 0.02 0.01 0.00 0.00 0.00 0.00 0.00 0.00 0.00 0.00 0.01 0.00 0.01 0.01 0.00 0.00 0.00 0.01 0.01 0.02
0.00 0.00 0.00 0.00 0.00 0.00 0.00 0.00 0.00 0.00 0.00 0.00 0.00 0.00 0.00 0.00 0.00 0.00 0.00 0.00 0.00 0.01 0.01 0.00 0.00 0.00 0.00 0.00 0.01 0.01 0.00 0.00 0.00 0.00 0.00 0.00 0.00 0.00 0.01 0.00 0.01 0.00
0.00 0.00 0.00 0.00 0.00 0.00 0.00 0.00 -0.00 0.00 0.00 0.00 0.00 0.00 0.00 0.00 0.00 0.00 0.00 0.01 0.01 0.00 0.01 0.00 0.00 0.00 0.00 0.00 0.00 0.00 0.02 0.01 0.01 0.02 0.02 0.01 0.01 0.01 0.00 0.00 0.01 0.01
0.00 0.00 0.00 0.00 0.00 0.00 0.00 0.00 0.00 -0.00 -0.00 -0.00 0.00 0.00 0.00 0.00 0.00 0.00 0.00 0.00 0.00 0.01 0.01 0.01 0.01 0.01 0.01 0.00 0.00 0.01 0.00 0.00 0.00 0.00 0.01 0.01 0.01 0.02 0.00 0.01 0.01 0.01
0.00 0.00 0.00 0.00 0.00 0.00 -0.00 0.00 -0.00 -0.00 -0.00 -0.00 0.00 0.00 0.00 0.00 0.00 0.00 0.00 0.00 0.00 0.00 0.00 0.00 0.02 0.02 0.01 0.01 0.00 0.00 0.01 0.01 0.01 0.01 0.01 0.01 0.01 0.00 0.00 0.00 0.00 0.02
0.00 0.00 0.00 0.00 0.00 0.00 0.00 0.00 0.00 0.00 0.00 0.00 0.00 0.00 0.00 0.00 0.00 0.00 0.00 0.00 0.00 0.00 0.01 0.01 0.01 0.02 0.02 0.01 0.02 0.01 0.01 0.00 0.00 0.00 0.01 0.01 0.01 0.01 0.00 0.00 0.00 0.00
0.00 0.00 0.00 0.00 0.00 0.00 0.00 0.00 0.00 0.00 0.00 -0.00 0.00 -0.00 -0.00 0.00 0.00 0.00 0.00 0.00 0.00 0.00 0.01 0.01 0.01 0.02 0.03 0.02 0.01 0.03 0.04 0.01 0.01 0.00 0.01 0.01 0.01 0.00 0.00 0.00 0.00 0.00
0.00 0.00 0.00 0.00 0.00 0.00 0.00 0.00 0.00 0.00 0.00 -0.00 0.00 0.00 0.00 0.00 0.00 0.00 0.00 0.00 0.00 0.01 0.01 0.01 0.02 0.01 0.01 0.02 0.01 0.00 0.00 0.02 0.00 0.00 0.01 0.01 0.00 0.00 0.00 0.00 0.00 0.00
0.00 0.00 0.00 0.00 0.00 0.00 0.00 0.00 0.00 0.00 0.00 0.00 0.00 -0.00 -0.00 0.00 0.00 0.00 0.00 0.00 0.00 0.00 0.00 0.01 0.01 0.01 0.01 0.01 0.02 0.01 0.01 0.01 0.01 0.00 0.01 0.01 0.00 0.00 0.00 0.00 0.00 0.00
0.00 0.00 0.00 0.00 0.00 0.00 0.00 0.00 0.00 0.00 0.00 0.00 0.00 0.00 0.00 0.00 0.00 0.00 0.00 0.00 0.00 0.01 0.01 0.01 0.01 0.01 0.02 0.02 0.01 0.01 0.01 0.00 0.00 0.01 0.01 0.02 0.00 0.01 0.00 0.00 0.00 0.00
0.00 0.00 0.00 0.00 0.00 0.00 0.00 0.00 0.00 0.00 0.00 0.00 0.00 0.00 0.00 0.00 -0.00 -0.00 0.00 0.00 0.00 0.00 0.01 0.04 0.02 0.07 0.03 0.02 0.01 0.01 0.01 0.00 0.01 0.00 0.01 0.01 0.01 0.00 0.01 0.00 0.00 0.00
0.00 0.00 0.00 0.00 0.00 0.00 0.00 0.00 0.01 0.00 0.00 0.00 0.00 0.00 0.00 -0.00 0.00 0.00 0.00 0.00 0.00 0.00 0.01 0.07 0.12 0.04 0.01 0.01 0.01 0.01 0.00 0.01 0.00 0.00 0.02 0.01 0.01 0.01 0.01 0.01 0.01 0.01
0.00 0.00 0.00 0.00 0.00 0.00 0.00 0.00 0.00 0.01 0.01 0.00 0.00 0.00 0.00 0.00 0.00 0.00 0.00 0.00 0.00 0.00 0.05 0.08 0.06 0.03 0.05 0.00 0.00 0.00 0.00 0.00 0.01 0.01 0.00 0.01 0.01 0.01 0.01 0.00 0.00 0.01
0.00 0.00 0.00 0.00 0.00 -0.00 0.00 0.00 0.00 0.00 0.00 0.00 0.00 0.00 0.00 0.00 0.00 0.00 0.00 0.00 0.00 0.00 0.01 0.01 0.03 0.03 0.00 0.00 0.00 0.00 0.00 0.00 0.01 0.01 0.00 0.00 0.01 0.03 0.01 0.00 0.01 0.02
0.00 0.00 0.00 0.00 0.00 -0.00 0.00 0.00 0.00 0.01 0.01 0.00 0.00 0.00 0.00 0.00 0.00 0.00 0.00 0.00 0.00 0.00 0.00 0.00 0.01 0.02 0.00 0.00 0.00 0.00 -0.00 -0.00 0.00 0.01 0.00 0.00 0.01 0.01 0.01 0.01 0.01 0.03
0.00 0.00 0.00 0.00 0.00 0.00 0.00 0.00 0.00 0.00 0.00 0.00 0.00 0.00 0.00 0.00 0.00 0.00 0.00 0.00 0.00 0.00 0.01 0.00 0.09 0.14 0.02 0.00 0.00 0.00 0.00 0.00 0.00 0.01 0.00 0.00 0.01 0.01 0.02 0.01 0.01 0.02
0.00 0.00 0.00 0.00 0.00 0.00 0.00 0.00 0.00 0.00 0.00 0.00 -0.00 0.00 0.00 0.00 0.00 0.00 0.00 0.00 0.00 0.02 0.04 0.02 0.17 0.11 0.00 0.00 0.00 0.00 0.00 0.00 0.00 0.01 0.01 0.00 0.01 0.00 0.00 0.01 0.01 0.01
0.00 0.00 0.00 0.00 0.00 0.00 0.00 0.00 0.00 0.00 0.00 0.00 0.00 0.00 0.00 0.00 0.00 0.00 0.00 0.00 0.02 0.09 0.10 0.05 0.06 0.00 0.00 0.00 0.00 -0.00 0.00 0.00 0.00 0.02 0.02 0.03 0.06 0.03 0.05 0.03 0.01 0.01
0.00 0.00 0.00 0.00 0.00 0.00 0.00 0.00 0.00 0.00 0.00 0.00 0.00 0.00 0.01 0.00 0.00 0.00 0.01 0.00 0.05 0.04 0.04 0.01 0.02 0.00 0.00 0.00 0.00 -0.00 -0.00 0.00 0.04 0.03 0.02 0.04 0.02 0.01 0.00 0.00 0.00 0.01
0.00 0.00 0.00 0.00 0.00 0.00 0.00 0.00 0.00 0.00 0.00 0.00 0.00 0.01 0.01 0.01 0.00 0.01 0.02 0.01 0.03 0.05 0.06 0.02 0.03 0.03 0.00 0.00 0.00 0.00 0.00 -0.00 0.03 0.03 0.02 0.02 0.04 0.01 0.02 0.00 0.00 0.00
0.00 0.00 0.00 0.00 0.00 0.00 0.00 0.00 0.00 0.00 0.00 0.00 0.01 0.02 0.02 0.01 0.02 0.01 0.00 0.01 0.01 0.02 0.02 0.08 0.02 0.00 0.00 0.00 0.00 0.00 0.00 0.03 0.06 0.05 0.07 0.09 0.25 0.14 0.01 0.01 0.01 0.00
0.00 0.00 0.00 0.00 0.00 -0.00 0.00 0.00 0.00 0.00 0.00 0.00 0.00 0.00 0.00 0.00 0.00 0.00 0.00 0.00 0.00 0.00 0.00 0.01 0.01 0.00 0.00 0.00 0.00 0.01 0.00 0.01 0.05 0.18 0.21 0.31 0.20 0.08 0.03 0.01 0.01 0.04
0.00 0.00 0.00 0.00 0.00 0.00 0.00 0.00 0.00 -0.00 -0.00 0.00 0.00 0.00 0.00 0.00 0.00 -0.00 0.00 0.00 0.00 0.00 0.00 0.00 0.00 0.05 0.14 0.12 0.04 0.01 0.00 0.02 0.22 0.20 0.12 0.08 0.10 0.01 0.04 0.02 0.00 0.00
MSLP
1016.05 1016.13 1016.33 1016.29 1016.33 1016.29 1016.37 1016.41 1016.29 1016.29 1016.21 1016.01 1016.01 1015.77 1015.65 1015.45 1015.25 1015.21 1015.09 1015.01 1014.97 1014.97 1014.85 1014.85 1014.81 1014.77 1014.65 1014.57 1014.49 1014.45 1014.45 1014.45 1014.33 1014.29 1014.33 1014.05 1014.05 1014.05 1014.09 1013.97 1013.85 1013.77
1016.01 1016.01 1016.13 1016.13 1016.21 1016.17 1016.13 1016.09 1016.13 1016.17 1016.13 1016.01 1015.85 1015.69 1015.53 1015.45 1015.25 1015.13 1015.13 1015.09 1014.97 1014.93 1014.81 1014.77 1014.77 1014.73 1014.65 1014.61 1014.57 1014.53 1014.49 1014.37 1014.33 1014.01 1014.25 1014.17 1013.89 1013.73 1013.69 1013.61 1013.53 1013.49
1015.93 1016.01 1016.05 1016.17 1016.09 1015.97 1016.05 1015.97 1016.01 1016.01 1016.01 1015.85 1015.69 1015.65 1015.61 1015.33 1015.29 1015.17 1015.13 1015.09 1015.09 1014.97 1014.89 1014.81 1014.77 1014.65 1014.61 1014.53 1014.45 1014.45 1014.41 1014.37 1014.37 1014.05 1014.01 1014.01 1013.81 1013.73 1013.49 1013.29 1013.21 1013.09
1015.85 1015.85 1015.89 1015.89 1015.89 1016.01 1015.93 1016.01 1015.93 1015.85 1015.77 1015.77 1015.69 1015.45 1015.45 1015.37 1015.33 1015.29 1015.17 1015.05 1015.05 1014.97 1014.89 1014.81 1014.69 1014.57 1014.45 1014.37 1014.29 1014.33 1014.21 1014.13 1014.05 1013.89 1013.97 1013.81 1013.65 1013.57 1013.49 1013.29 1013.21 1013.01
1015.69 1015.73 1015.77 1015.77 1015.69 1015.77 1015.85 1015.97 1015.93 1015.73 1015.73 1015.65 1015.57 1015.53 1015.49 1015.41 1015.37 1015.25 1015.17 1015.01 1014.89 1014.85 1014.73 1014.69 1014.53 1014.49 1014.41 1014.33 1014.21 1014.25 1014.17 1014.09 1013.77 1013.77 1013.89 1013.89 1013.61 1013.45 1013.29 1013.17 1013.17 1013.13
1015.49 1015.57 1015.61 1015.73 1015.73 1015.81 1015.85 1015.81 1015.73 1015.73 1015.65 1015.53 1015.49 1015.33 1015.33 1015.29 1015.29 1015.21 1015.09 1015.01 1014.85 1014.73 1014.61 1014.49 1014.41 1014.37 1014.33 1014.29 1014.17 1014.13 1014.09 1014.05 1013.89 1013.85 1013.89 1013.85 1013.65 1013.37 1013.21 1013.09 1013.13 1013.13
1015.49 1015.49 1015.61 1015.49 1015.61 1015.57 1015.69 1015.65 1015.61 1015.57 1015.45 1015.33 1015.21 1015.33 1015.21 1015.25 1015.21 1015.09 1014.97 1014.81 1014.69 1014.61 1014.53 1014.41 1014.33 1014.29 1014.13 1014.13 1014.05 1014.13 1014.05 1013.97 1013.81 1013.73 1013.81 1013.73 1013.65 1013.57 1013.29 1013.25 1013.13 1013.01
1015.25 1015.13 1015.21 1015.29 1015.41 1015.45 1015.53 1015.49 1015.37 1015.29 1015.13 1015.05 1015.17 1015.01 1014.89 1014.93 1014.97 1014.89 1014.77 1014.65 1014.61 1014.53 1014.41 1014.25 1014.13 1014.09 1014.01 1014.01 1014.09 1014.09 1014.05 1013.81 1013.81 1013.73 1013.73 1013.65 1013.53 1013.57 1013.41 1013.21 1012.97 1012.85
1014.97 1015.05 1015.09 1015.25 1015.37 1015.33 1015.29 1015.13 1014.77 1014.53 1014.61 1014.85 1014.85 1014.73 1014.61 1014.61 1014.69 1014.65 1014.65 1014.53 1014.45 1014.37 1014.25 1014.17 1014.01 1013.85 1013.77 1013.85 1013.89 1013.93 1013.93 1013.81 1013.65 1013.61 1013.57 1013.53 1013.53 1013.45 1013.29 1013.13 1013.01 1012.81
1014.89 1014.89 1014.97 1014.97 1015.01 1014.97 1015.01 1014.81 1014.65 1014.49 1014.01 1014.21 1014.53 1014.49 1014.49 1014.37 1014.37 1014.41 1014.37 1014.41 1014.33 1014.21 1014.09 1014.01 1013.89 1013.81 1013.69 1013.65 1013.65 1013.65 1013.69 1013.73 1013.65 1013.53 1013.41 1013.37 1013.41 1013.29 1013.17 1013.09 1013.05 1012.89
1014.73 1014.69 1014.81 1014.85 1014.89 1014.73 1014.61 1014.37 1014.09 1013.93 1014.09 1014.41 1014.41 1014.29 1014.17 1014.05 1013.97 1013.89 1014.05 1014.13 1014.21 1014.01 1013.89 1013.77 1013.73 1013.65 1013.57 1013.49 1013.33 1013.21 1013.25 1013.37 1013.45 1013.37 1013.21 1013.13 1013.17 1013.09 1013.01 1012.97 1012.89 1012.77
1014.45 1014.53 1014.57 1014.57 1014.57 1014.57 1014.49 1014.41 1014.33 1014.41 1014.25 1013.77 1013.57 1013.85 1013.93 1013.77 1013.73 1013.65 1013.65 1013.77 1013.77 1013.77 1013.49 1013.41 1013.33 1013.33 1013.33 1013.25 1013.17 1013.05 1013.09 1013.09 1013.13 1013.09 1012.97 1012.93 1012.93 1012.85 1012.77 1012.69 1012.65 1012.57
1014.17 1014.25 1014.29 1014.29 1014.29 1014.33 1014.25 1014.21 1014.17 1014.01 1013.93 1014.17 1014.13 1014.05 1013.97 1013.73 1013.45 1013.37 1013.29 1013.37 1013.37 1013.41 1013.37 1013.09 1013.01 1013.01 1013.05 1013.09 1013.09 1013.09 1013.05 1013.09 1013.05 1012.97 1012.85 1012.77 1012.69 1012.61 1012.53 1012.45 1012.33 1012.25
1013.85 1013.85 1013.97 1014.05 1014.05 1014.09 1014.13 1014.17 1014.21 1014.29 1014.37 1014.29 1014.17 1014.13 1013.81 1013.53 1013.41 1013.29 1013.09 1013.09 1013.13 1013.05 1013.09 1013.13 1012.97 1013.21 1012.97 1012.77 1012.81 1012.89 1012.93 1012.93 1012.93 1012.89 1012.73 1012.65 1012.53 1012.41 1012.33 1012.25 1012.09 1012.09
1013.61 1013.65 1013.69 1013.81 1013.89 1014.01 1014.09 1014.17 1014.25 1014.25 1014.25 1014.17 1014.01 1013.81 1013.57 1013.45 1013.25 1013.17 1013.17 1013.13 1013.01 1012.85 1012.77 1013.05 1013.33 1013.09 1012.45 1012.53 1012.73 1012.69 1012.73 1012.89 1012.81 1012.69 1012.61 1012.53 1012.37 1012.25 1012.13 1012.05 1011.89 1011.93
1013.45 1013.57 1013.65 1013.69 1013.85 1013.93 1013.97 1014.05 1014.09 1014.05 1014.05 1014.05 1013.89 1013.65 1013.49 1013.33 1013.29 1013.17 1013.09 1012.93 1012.85 1012.73 1012.65 1012.81 1013.05 1012.61 1012.53 1012.69 1012.65 1012.61 1012.65 1012.69 1012.57 1012.49 1012.45 1012.33 1012.21 1012.13 1012.01 1011.81 1011.69 1011.69
1013.29 1013.45 1013.53 1013.73 1013.73 1013.77 1013.77 1013.85 1013.85 1013.77 1013.89 1013.89 1013.73 1013.53 1013.41 1013.25 1013.13 1013.13 1013.01 1012.81 1012.69 1012.61 1012.53 1012.41 1012.41 1012.29 1012.57 1012.61 1012.77 1012.81 1012.81 1012.73 1012.61 1012.37 1012.21 1012.09 1011.97 1011.93 1011.89 1011.65 1011.45 1011.41
1013.09 1013.21 1013.37 1013.49 1013.53 1013.65 1013.61 1013.57 1013.49 1013.57 1013.65 1013.65 1013.53 1013.37 1013.17 1012.97 1013.05 1013.01 1012.89 1012.73 1012.57 1012.45 1012.37 1012.33 1012.13 1012.09 1012.37 1012.65 1012.65 1012.69 1012.69 1012.61 1012.41 1012.25 1012.05 1011.89 1011.69 1011.61 1011.45 1011.37 1011.29 1011.17
1012.81 1013.05 1013.17 1013.29 1013.33 1013.33 1013.25 1013.21 1013.29 1013.33 1013.37 1013.29 1013.21 1012.97 1012.89 1012.97 1012.89 1012.77 1012.65 1012.45 1012.45 1012.45 1012.45 1012.29 1012.77 1013.41 1012.89 1012.57 1012.49 1012.49 1012.49 1012.53 1012.33 1012.05 1011.89 1011.69 1011.41 1011.29 1011.17 1011.09 1011.05 1010.97
1012.57 1012.73 1012.97 1013.01 1013.01 1013.01 1013.01 1013.09 1013.09 1013.17 1013.05 1012.89 1012.77 1012.73 1012.81 1012.81 1012.69 1012.57 1012.41 1012.33 1012.25 1012.85 1013.29 1012.97 1012.77 1012.73 1012.53 1012.29 1012.25 1012.21 1012.25 1012.37 1012.09 1011.85 1011.61 1011.49 1011.25 1011.05 1010.93 1010.77 1010.69 1010.65
1012.29 1012.45 1012.61 1012.69 1012.69 1012.69 1012.73 1012.81 1012.85 1012.85 1012.85 1012.73 1012.57 1012.57 1012.69 1012.65 1012.57 1012.49 1012.29 1012.25 1012.65 1012.69 1012.73 1012.73 1012.41 1012.33 1012.29 1012.09 1011.93 1011.97 1011.97 1012.21 1011.85 1011.65 1011.53 1011.45 1011.33 1011.13 1011.01 1010.45 1010.21 1010.17
1011.89 1012.13 1012.29 1012.33 1012.41 1012.37 1012.45 1012.57 1012.61 1012.65 1012.69 1012.49 1012.45 1012.37 1012.25 1012.37 1012.37 1012.37 1012.49 1012.45 1012.25 1012.25 1012.29 1012.33 1012.01 1012.01 1012.09 1012.01 1011.89 1011.77 1011.85 1011.85 1011.57 1011.45 1011.33 1011.13 1011.01 1010.41 1010.05 1009.81 1009.69 1009.77
1011.41 1011.69 1011.89 1012.05 1012.13 1012.13 1012.21 1012.21 1012.25 1012.33 1012.25 1012.13 1012.29 1012.25 1012.37 1012.37 1012.25 1012.13 1012.05 1012.01 1012.01 1011.97 1012.05 1012.01 1011.81 1011.65 1011.73 1011.81 1011.85 1011.73 1011.81 1011.49 1011.25 1011.21 1011.13 1011.17 1011.17 1010.77 1010.01 1009.49 1009.37 1009.37
1010.97 1011.21 1011.49 1011.69 1011.81 1011.93 1011.89 1011.85 1011.77 1011.77 1011.85 1011.73 1012.01 1012.13 1012.21 1012.05 1011.89 1011.81 1011.65 1011.61 1011.77 1011.85 1011.77 1011.97 1011.73 1011.49 1011.69 1011.77 1011.77 1011.69 1011.77 1011.53 1011.25 1011.01 1011.17 1011.25 1011.61 1010.45 1009.41 1009.29 1009.13 1009.33
1010.65 1010.85 1011.13 1011.33 1011.45 1011.49 1011.45 1011.53 1011.49 1011.49 1011.45 1011.49 1011.69 1011.69 1011.73 1011.65 1011.57 1011.53 1011.37 1011.37 1011.29 1011.37 1011.53 1011.77 1011.45 1011.33 1011.37 1011.33 1011.21 1011.13 1011.49 1011.41 1011.53 1011.25 1011.21 1011.45 1011.49 1010.81 1009.61 1009.21 1008.97 1008.89
1010.29 1010.65 1010.89 1011.05 1011.13 1011.13 1011.09 1011.21 1011.09 1011.09 1011.25 1011.37 1011.41 1011.37 1011.33 1011.09 1011.05 1011.09 1011.21 1011.17 1011.05 1011.13 1011.09 1011.05 1011.17 1011.17 1011.05 1011.05 1010.89 1010.81 1010.89 1011.25 1011.41 1011.45 1011.17 1010.93 1011.01 1010.57 1009.61 1009.41 1008.97 1008.73
Thickness
5754 5752 5749 5747 5745 5742 5741 5738 5737 5736 5735 5735 5734 5734 5734 5733 5733 5732 5730 5728 5726 5724 5722 5720 5718 5716 5714 5712 5709 5707 5704 5702 5701 5700 5699 5698 5697 5696 5694 5694 5693 5692
5751 5750 5747 5744 5743 5741 5739 5737 5735 5734 5733 5732 5732 5731 5730 5729 5728 5728 5726 5724 5722 5720 5718 5716 5714 5712 5710 5708 5706 5704 5702 5699 5698 5697 5696 5695 5694 5693 5692 5692 5691 5690
5748 5747 5745 5742 5741 5739 5737 5736 5734 5731 5730 5729 5729 5727 5727 5725 5724 5723 5721 5719 5717 5715 5713 5711 5709 5708 5706 5705 5702 5701 5698 5696 5694 5694 5693 5692 5691 5690 5690 5689 5689 5688
5745 5744 5743 5741 5739 5737 5735 5732 5730 5729 5728 5726 5725 5723 5723 5721 5719 5718 5716 5715 5713 5711 5709 5707 5705 5703 5702 5701 5699 5697 5695 5693 5692 5691 5688 5687 5687 5686 5686 5685 5684 5683
5744 5742 5740 5738 5736 5734 5732 5729 5727 5726 5725 5723 5721 5719 5718 5716 5714 5713 5712 5711 5709 5706 5705 5703 5701 5700 5698 5697 5695 5692 5690 5689 5689 5687 5683 5682 5682 5681 5681 5681 5679 5677
5741 5739 5737 5735 5734 5731 5729 5726 5725 5723 5721 5720 5719 5716 5715 5712 5710 5709 5707 5706 5705 5702 5701 5698 5696 5695 5693 5692 5691 5688 5685 5684 5683 5681 5679 5677 5676 5675 5675 5674 5672 5671
5739 5737 5735 5733 5731 5728 5726 5724 5722 5720 5719 5717 5716 5713 5711 5710 5707 5706 5705 5703 5701 5699 5697 5694 5692 5690 5688 5687 5685 5682 5680 5679 5678 5676 5673 5672 5670 5668 5668 5666 5666 5665
5737 5736 5734 5731 5729 5726 5723 5722 5720 5720 5718 5715 5713 5711 5710 5707 5705 5703 5702 5700 5698 5695 5693 5691 5689 5686 5684 5682 5679 5676 5674 5673 5672 5670 5667 5666 5664 5661 5661 5660 5659 5659
5735 5734 5731 5729 5726 5723 5722 5721 5720 5720 5718 5714 5711 5709 5708 5705 5702 5700 5698 5696 5694 5691 5690 5687 5685 5683 5680 5677 5674 5671 5669 5667 5665 5664 5662 5661 5658 5655 5655 5653 5652 5652
5732 5731 5729 5726 5724 5722 5720 5719 5719 5719 5717 5713 5708 5705 5704 5702 5700 5698 5694 5692 5690 5687 5685 5683 5680 5678 5676 5673 5671 5668 5665 5661 5658 5658 5657 5655 5653 5651 5650 5648 5646 5646
5730 5728 5726 5724 5722 5720 5719 5718 5717 5715 5712 5708 5706 5703 5701 5699 5697 5695 5692 5689 5686 5684 5682 5680 5676 5674 5672 5669 5667 5665 5663 5658 5654 5653 5652 5650 5649 5647 5645 5643 5641 5640
5729 5726 5724 5722 5720 5718 5716 5714 5712 5710 5707 5706 5705 5701 5698 5697 5695 5693 5690 5686 5683 5681 5680 5678 5674 5671 5669 5666 5663 5661 5658 5655 5652 5649 5648 5646 5644 5643 5641 5640 5638 5635
5727 5724 5722 5720 5718 5715 5713 5710 5708 5706 5704 5702 5699 5695 5693 5693 5691 5689 5687 5683 5681 5679 5676 5675 5672 5668 5665 5662 5659 5655 5652 5650 5647 5645 5644 5643 5641 5640 5638 5636 5634 5632
5725 5723 5721 5718 5715 5713 5709 5706 5703 5700 5698 5695 5692 5691 5690 5689 5687 5685 5683 5680 5677 5676 5674 5671 5666 5662 5660 5658 5655 5651 5648 5645 5642 5641 5640 5639 5638 5636 5635 5633 5631 5628
5723 5721 5718 5715 5712 5709 5705 5702 5699 5696 5693 5691 5689 5688 5686 5684 5683 5680 5679 5675 5673 5672 5670 5666 5661 5659 5658 5654 5650 5648 5644 5641 5639 5638 5637 5636 5635 5634 5632 5631 5628 5625
5721 5718 5715 5712 5708 5705 5702 5699 5695 5692 5689 5686 5685 5684 5682 5680 5678 5676 5674 5671 5669 5668 5666 5662 5659 5657 5654 5649 5646 5644 5640 5637 5636 5635 5634 5633 5633 5632 5630 5629 5626 5623
5718 5715 5711 5707 5705 5702 5698 5695 5692 5689 5686 5683 5681 5680 5678 5677 5674 5671 5670 5667 5665 5663 5661 5658 5657 5654 5650 5645 5642 5639 5636 5634 5633 5632 5632 5631 5631 5630 5627 5626 5625 5621
5715 5712 5708 5704 5701 5698 5695 5692 5689 5686 5682 5679 5678 5677 5675 5673 5670 5667 5665 5664 5662 5660 5657 5655 5652 5648 5644 5641 5638 5635 5633 5632 5630 5629 5630 5629 5629 5629 5627 5625 5623 5621
5713 5709 5705 5701 5698 5695 5693 5690 5686 5682 5679 5677 5676 5674 5672 5669 5667 5665 5663 5662 5660 5655 5650 5649 5644 5638 5637 5637 5636 5633 5631 5629 5628 5627 5627 5627 5628 5627 5625 5623 5620 5618
5710 5706 5702 5699 5696 5693 5690 5687 5683 5680 5677 5675 5673 5671 5668 5665 5663 5662 5660 5659 5655 5648 5642 5641 5639 5635 5634 5635 5633 5631 5629 5627 5626 5626 5626 5625 5625 5624 5622 5621 5619 5616
5708 5704 5700 5696 5694 5691 5687 5684 5680 5677 5674 5672 5671 5667 5665 5662 5659 5657 5655 5653 5649 5644 5639 5637 5637 5635 5632 5632 5631 5630 5627 5625 5625 5625 5624 5623 5622 5621 5621 5621 5620 5617
5706 5702 5698 5695 5691 5688 5685 5682 5678 5674 5671 5669 5667 5664 5661 5659 5655 5652 5650 5647 5644 5641 5638 5635 5634 5633 5630 5628 5628 5627 5625 5624 5624 5622 5622 5621 5620 5621 5622 5622 5621 5617
5705 5701 5697 5693 5689 5686 5682 5680 5676 5672 5669 5667 5664 5660 5657 5653 5651 5650 5647 5644 5641 5638 5634 5632 5631 5631 5628 5625 5625 5624 5622 5623 5623 5621 5620 5617 5615 5618 5621 5622 5620 5615
5705 5701 5696 5691 5688 5684 5681 5679 5675 5670 5668 5666 5661 5657 5654 5651 5649 5648 5645 5642 5639 5634 5631 5628 5628 5628 5626 5624 5624 5623 5620 5620 5620 5619 5618 5613 5609 5615 5622 5622 5618 5614
5704 5699 5694 5690 5686 5683 5680 5676 5673 5669 5666 5663 5659 5655 5653 5650 5648 5645 5642 5640 5637 5633 5629 5626 5626 5627 5625 5624 5625 5624 5620 5618 5615 5615 5615 5611 5607 5612 5618 5619 5617 5615
5701 5696 5691 5687 5683 5680 5678 5674 5672 5668 5664 5660 5657 5654 5652 5650 5647 5643 5639 5637 5635 5631 5628 5627 5625 5624 5624 5624 5624 5623 5621 5617 5613 5613 5613 5611 5609 5611 5615 5616 5615 5613